When you browse on this site, cookies collect data to enhance your experience and personalize the content and advertising you see.
Visit our Privacy Policy to learn more. By continuing to use the site, you agree to this use of cookies and data.
  • en France
  • Liste des pays
  • À 7 jours
  • Température de l'eau
  • Carte météo
  • Widgets météo
  • user-avatar
    Se connecter

    Météo par heure à Kinshasa

    Ce jour, 4 Juin, Jeudi

    Heure Température Précipitation Vent Pression Humidité
    00:00 +22°C° 0 mm 1 m/s 708 mmHg 98%
    01:00 +22°C° 0 mm 1 m/s 708 mmHg 98%
    02:00 +19°C° 0 mm 0 m/s 708 mmHg 98%
    03:00 +19°C° 0 mm 0 m/s 707 mmHg 98%
    04:00 +19°C° 0 mm 0 m/s 707 mmHg 98%
    05:00 +20°C° 0 mm 0 m/s 707 mmHg 97%
    06:00 +20°C° 0 mm 0 m/s 708 mmHg 96%
    07:00 +21°C° 0 mm 0 m/s 709 mmHg 96%
    08:00 +23°C° 0 mm 0 m/s 709 mmHg 88%
    09:00 +27°C° 0 mm 1 m/s 709 mmHg 80%
    10:00 +29°C° 0 mm 1 m/s 709 mmHg 72%
    11:00 +30°C° 0 mm 1 m/s 709 mmHg 68%
    12:00 +31°C° 0 mm 1 m/s 708 mmHg 64%
    13:00 +31°C° 0 mm 0 m/s 708 mmHg 59%
    14:00 +30°C° 0.7 mm 0 m/s 707 mmHg 67%
    15:00 +28°C° 0.7 mm 0 m/s 707 mmHg 75%
    16:00 +27°C° 0.7 mm 0 m/s 706 mmHg 83%
    17:00 +26°C° 0.7 mm 0 m/s 706 mmHg 85%
    18:00 +24°C° 0.7 mm 0 m/s 707 mmHg 87%
    19:00 +22°C° 0.7 mm 0 m/s 707 mmHg 89%
    20:00 +22°C° 0.7 mm 0 m/s 707 mmHg 91%
    21:00 +22°C° 0.7 mm 0 m/s 708 mmHg 93%
    22:00 +21°C° 0.7 mm 0 m/s 708 mmHg 96%
    23:00 +21°C° 0 mm 0 m/s 708 mmHg 96%

    Demain, 5 Juin, Vendredi

    Heure Température Précipitation Vent Pression Humidité
    00:00 +23°C° 0 mm 1 m/s 708 mmHg 96%
    01:00 +23°C° 0 mm 1 m/s 708 mmHg 96%
    02:00 +20°C° 0.1 mm 0 m/s 708 mmHg 97%
    03:00 +20°C° 0.1 mm 0 m/s 708 mmHg 97%
    04:00 +20°C° 0.1 mm 0 m/s 708 mmHg 97%
    05:00 +20°C° 0 mm 0 m/s 708 mmHg 97%
    06:00 +21°C° 0 mm 0 m/s 709 mmHg 97%
    07:00 +21°C° 0 mm 0 m/s 710 mmHg 97%
    08:00 +23°C° 0.3 mm 0 m/s 710 mmHg 92%
    09:00 +25°C° 0.3 mm 0 m/s 710 mmHg 86%
    10:00 +27°C° 0.3 mm 0 m/s 710 mmHg 81%
    11:00 +29°C° 1.2 mm 1 m/s 710 mmHg 80%
    12:00 +29°C° 1.2 mm 1 m/s 709 mmHg 78%
    13:00 +30°C° 1.2 mm 1 m/s 709 mmHg 77%
    14:00 +29°C° 0.2 mm 1 m/s 708 mmHg 80%
    15:00 +28°C° 0.2 mm 1 m/s 707 mmHg 83%
    16:00 +27°C° 0.2 mm 1 m/s 707 mmHg 86%
    17:00 +26°C° 0 mm 1 m/s 707 mmHg 87%
    18:00 +23°C° 0 mm 0 m/s 707 mmHg 88%
    19:00 +22°C° 0 mm 0 m/s 708 mmHg 89%
    20:00 +22°C° 0 mm 0 m/s 708 mmHg 89%
    21:00 +22°C° 0 mm 0 m/s 708 mmHg 90%
    22:00 +21°C° 0 mm 0 m/s 708 mmHg 90%
    23:00 +21°C° 0 mm 0 m/s 708 mmHg 91%

    Après-demain, 6 Juin, Samedi

    Heure Température Précipitation Vent Pression Humidité
    00:00 +23°C° 0 mm 1 m/s 708 mmHg 92%
    01:00 +22°C° 0 mm 1 m/s 708 mmHg 93%
    02:00 +22°C° 0 mm 1 m/s 708 mmHg 93%
    03:00 +22°C° 0 mm 1 m/s 708 mmHg 93%
    04:00 +22°C° 0 mm 1 m/s 708 mmHg 93%
    05:00 +22°C° 0 mm 1 m/s 709 mmHg 92%
    06:00 +21°C° 0 mm 0 m/s 709 mmHg 91%
    07:00 +21°C° 0 mm 0 m/s 710 mmHg 90%
    08:00 +25°C° 0 mm 1 m/s 710 mmHg 84%
    09:00 +27°C° 0 mm 1 m/s 710 mmHg 77%
    10:00 +30°C° 0 mm 1 m/s 711 mmHg 70%
    11:00 +31°C° 0 mm 1 m/s 710 mmHg 67%
    12:00 +32°C° 0 mm 1 m/s 709 mmHg 64%
    13:00 +33°C° 0 mm 1 m/s 709 mmHg 60%
    14:00 +32°C° 0.4 mm 1 m/s 708 mmHg 64%
    15:00 +32°C° 0.4 mm 1 m/s 707 mmHg 69%
    16:00 +31°C° 0.4 mm 1 m/s 707 mmHg 73%
    17:00 +29°C° 0.2 mm 1 m/s 707 mmHg 78%
    18:00 +27°C° 0.2 mm 1 m/s 707 mmHg 83%
    19:00 +25°C° 0.2 mm 1 m/s 707 mmHg 89%
    20:00 +23°C° 0.1 mm 0 m/s 707 mmHg 90%
    21:00 +22°C° 0.1 mm 0 m/s 707 mmHg 91%
    22:00 +22°C° 0.1 mm 0 m/s 707 mmHg 92%
    23:00 +21°C° 0 mm 0 m/s 707 mmHg 93%

    7 Juin, Dimanche

    Heure Température Précipitation Vent Pression Humidité
    00:00 +21°C° 0 mm 0 m/s 707 mmHg 94%
    01:00 +23°C° 0 mm 1 m/s 708 mmHg 95%
    02:00 +23°C° 0 mm 1 m/s 708 mmHg 95%
    03:00 +22°C° 0 mm 1 m/s 708 mmHg 96%
    04:00 +22°C° 0 mm 1 m/s 708 mmHg 97%
    05:00 +22°C° 0.1 mm 1 m/s 708 mmHg 97%
    06:00 +23°C° 0.1 mm 1 m/s 709 mmHg 97%
    07:00 +23°C° 0.1 mm 1 m/s 709 mmHg 96%
    08:00 +25°C° 0.2 mm 1 m/s 709 mmHg 92%
    09:00 +26°C° 0.2 mm 1 m/s 709 mmHg 87%
    10:00 +27°C° 0.2 mm 2 m/s 710 mmHg 82%
    11:00 +29°C° 0.4 mm 1 m/s 709 mmHg 77%
    12:00 +30°C° 0.4 mm 1 m/s 709 mmHg 72%
    13:00 +29°C° 0.4 mm 0 m/s 708 mmHg 66%
    14:00 +29°C° 0.1 mm 0 m/s 707 mmHg 67%
    15:00 +29°C° 0.1 mm 0 m/s 707 mmHg 67%
    16:00 +29°C° 0.1 mm 0 m/s 706 mmHg 67%
    17:00 +27°C° 0 mm 0 m/s 706 mmHg 72%
    18:00 +25°C° 0 mm 0 m/s 707 mmHg 77%
    19:00 +23°C° 0 mm 0 m/s 707 mmHg 83%
    20:00 +23°C° 0 mm 0 m/s 707 mmHg 84%
    21:00 +24°C° 0 mm 1 m/s 707 mmHg 86%
    22:00 +24°C° 0 mm 1 m/s 707 mmHg 88%
    23:00 +23°C° 0 mm 1 m/s 707 mmHg 89%

    8 Juin, Lundi

    Heure Température Précipitation Vent Pression Humidité
    00:00 +23°C° 0 mm 1 m/s 707 mmHg 91%
    01:00 +23°C° 0 mm 1 m/s 707 mmHg 93%
    02:00 +22°C° 0 mm 1 m/s 707 mmHg 94%
    03:00 +22°C° 0 mm 1 m/s 707 mmHg 95%
    04:00 +22°C° 0 mm 1 m/s 707 mmHg 96%
    05:00 +22°C° 0 mm 1 m/s 707 mmHg 95%
    06:00 +23°C° 0 mm 1 m/s 707 mmHg 93%
    07:00 +23°C° 0 mm 2 m/s 708 mmHg 91%
    08:00 +25°C° 0.3 mm 2 m/s 708 mmHg 87%
    09:00 +26°C° 0.3 mm 2 m/s 709 mmHg 84%
    10:00 +28°C° 0.3 mm 2 m/s 709 mmHg 80%
    11:00 +28°C° 1.2 mm 2 m/s 709 mmHg 80%
    12:00 +29°C° 1.2 mm 2 m/s 708 mmHg 79%
    13:00 +29°C° 1.2 mm 2 m/s 708 mmHg 79%
    14:00 +29°C° 0.1 mm 1 m/s 707 mmHg 76%
    15:00 +30°C° 0.1 mm 1 m/s 706 mmHg 73%
    16:00 +30°C° 0.1 mm 1 m/s 706 mmHg 70%
    17:00 +28°C° 0.1 mm 1 m/s 706 mmHg 74%
    18:00 +26°C° 0.1 mm 1 m/s 706 mmHg 79%
    19:00 +25°C° 0.1 mm 1 m/s 706 mmHg 83%
    20:00 +24°C° 0 mm 1 m/s 706 mmHg 85%
    21:00 +24°C° 0 mm 1 m/s 706 mmHg 86%
    22:00 +23°C° 0 mm 1 m/s 706 mmHg 87%
    23:00 +23°C° 0 mm 1 m/s 706 mmHg 88%

    9 Juin, Mardi

    Heure Température Précipitation Vent Pression Humidité
    00:00 +22°C° 0 mm 1 m/s 706 mmHg 90%
    01:00 +22°C° 0 mm 1 m/s 706 mmHg 91%
    02:00 +22°C° 0 mm 1 m/s 706 mmHg 92%
    03:00 +22°C° 0 mm 1 m/s 706 mmHg 92%
    04:00 +21°C° 0 mm 1 m/s 706 mmHg 93%
    05:00 +22°C° 0.1 mm 1 m/s 707 mmHg 92%
    06:00 +22°C° 0.1 mm 1 m/s 707 mmHg 92%
    07:00 +23°C° 0.1 mm 1 m/s 707 mmHg 91%
    08:00 +24°C° 0.3 mm 2 m/s 708 mmHg 88%
    09:00 +26°C° 0.3 mm 2 m/s 708 mmHg 85%
    10:00 +28°C° 0.3 mm 2 m/s 709 mmHg 81%
    11:00 +28°C° 1.3 mm 2 m/s 708 mmHg 82%
    12:00 +28°C° 1.3 mm 2 m/s 707 mmHg 82%
    13:00 +29°C° 1.3 mm 2 m/s 707 mmHg 83%
    14:00 +29°C° 0.3 mm 2 m/s 706 mmHg 80%
    15:00 +29°C° 0.3 mm 1 m/s 706 mmHg 78%
    16:00 +29°C° 0.3 mm 1 m/s 706 mmHg 75%
    17:00 +28°C° 0.1 mm 1 m/s 706 mmHg 80%
    18:00 +26°C° 0.1 mm 1 m/s 706 mmHg 85%
    19:00 +24°C° 0.1 mm 1 m/s 706 mmHg 91%
    20:00 +24°C° 0.3 mm 1 m/s 706 mmHg 91%
    21:00 +24°C° 0.3 mm 1 m/s 707 mmHg 92%
    22:00 +23°C° 0.3 mm 1 m/s 707 mmHg 92%
    23:00 +23°C° 0.3 mm 1 m/s 707 mmHg 94%
    Voir plus